This is the latest recevied weather packets stored in our database for station/object MB7UUE. If no packets are shown the sender has not sent any weather packets the latest 10 day(s).
| Time | Temp. | Humidity | Pressure | Rain* | Wind** | Luminosity | Snow |
|---|---|---|---|---|---|---|---|
| 1778051775 | 9.44° C | 72% | 1012.8 hPa | 0 mm | - | - | - |
| 1778050634 | 9.44° C | 74% | 1012.6 hPa | 0 mm | - | - | - |
| 1778049495 | 8.33° C | 78% | 1012.4 hPa | 0 mm | - | - | - |
| 1778048355 | 8.33° C | 78% | 1012.5 hPa | 0 mm | - | - | - |
| 1778047216 | 7.78° C | 78% | 1012.4 hPa | 0 mm | - | - | - |
| 1778046074 | 7.78° C | 78% | 1012.4 hPa | 0 mm | - | - | - |
| 1778044936 | 7.78° C | 78% | 1012.3 hPa | 0 mm | - | - | - |
| 1778043794 | 8.33° C | 77% | 1012.4 hPa | 0 mm | - | - | - |
| 1778042656 | 8.33° C | 76% | 1012.4 hPa | 0 mm | - | - | - |
| 1778041515 | 8.33° C | 75% | 1012.3 hPa | 0 mm | - | - | - |
| 1778040376 | 8.89° C | 75% | 1012.3 hPa | 0 mm | - | - | - |
| 1778039236 | 8.89° C | 74% | 1012.2 hPa | 0 mm | - | - | - |
| 1778038095 | 8.89° C | 74% | 1012.3 hPa | 0 mm | - | - | - |
| 1778036955 | 8.89° C | 74% | 1012.4 hPa | 0 mm | - | - | - |
| 1778035815 | 9.44° C | 75% | 1012.4 hPa | 0 mm | - | - | - |
| 1778034676 | 9.44° C | 76% | 1012.5 hPa | 0 mm | - | - | - |
| 1778033535 | 10° C | 76% | 1012.4 hPa | 0 mm | - | - | - |
| 1778032395 | 10° C | 76% | 1012.7 hPa | 0 mm | - | - | - |
| 1778031255 | 10° C | 75% | 1012.7 hPa | 0 mm | - | - | - |
| 1778030115 | 10° C | 75% | 1012.7 hPa | 0 mm | - | - | - |
| 1778028974 | 10° C | 75% | 1012.8 hPa | 0 mm | - | - | - |
| 1778027835 | 10.56° C | 75% | 1012.9 hPa | 0 mm | - | - | - |
| 1778026695 | 10.56° C | 74% | 1012.9 hPa | 0 mm | - | - | - |
| 1778025554 | 10.56° C | 74% | 1012.9 hPa | 0 mm | - | - | - |
| 1778024415 | 10.56° C | 74% | 1012.9 hPa | 0 mm | - | - | - |
* Rain latest hour (hover to see other rain measurements)
** Current wind speed in m/s (hover to see current wind gust speed)